Location: Newark
(53.2933°N, 6.3959°W)
Time: 10:48:07
(UTC+00:00)

Envisat - Pass Details

Date: 23 February 2020
Orbit: 764 x 766 km, 98.1° (Epoch: 06 April)

Event Time Altitude Azimuth Distance (km) Brightness Sun altitude
Rises 06:32:06 0° 19° (NNE) 3,248 6.4 -9.0°
Reaches altitude 10° 06:34:35 10° 28° (NNE) 2,317 5.8 -8.7°
Maximum altitude 06:39:20 38° 96° (E) 1,155 4.7 -8.0°
Drops below altitude 10° 06:44:03 10° 165° (SSE) 2,299 5.8 -7.3°
Sets 06:46:30 0° 173° (S) 3,220 6.4 -6.9°
